World > North America > United States > Texas

Zabcikville, Texas Regional Weather

Lat: 31.05N, Lon: 97.17W
Wx Zone: TXZ158Web Search
Zabcikville Weather Warning NWS WEATHER ALERT FOR THE ZABCIKVILLE, TX AREA - Issued: 653 PM CDT Mon Apr 12 2021 Zabcikville Weather Warning  

Helpful Tip: Abbreviated, 7 Day, 14 Day Forecasts. There is a weather forecast for every taste.

Feedback


°F Click to change Zabcikville hourly weather to Imperial units.Click to change Zabcikville hourly weather to Metric units. °C
Zabcikville Weather Map
UTC Time: 4/13/2021, 05:16
Your Time:

Zabcikville, TX Regional Weather

Expires:202104130600;;471202
ASUS44 KFWD 130515
RWRTX 
NORTH TEXAS HOURLY WEATHER ROUNDUP
NATIONAL WEATHER SERVICE FORT WORTH TX
1200 AM CDT TUE APR 13 2021

NOTE: "FAIR" INDICATES FEW OR NO CLOUDS BELOW 12,000 FEET WITH NO
SIGNIFICANT WEATHER AND/OR OBSTRUCTIONS TO VISIBILITY.


TXZ143>147-156>162-174-175-130600-
CENTRAL TEXAS
  
CITY           SKY/WX    TMP DP  RH WIND       PRES   REMARKS
WACO           FAIR      72  65  78 S8        29.86S                  
WACO-MCGREGOR  FAIR      72  65  78 SE3       29.88F                  
HILLSBORO      CLOUDY    72  57  60 N7        29.88R                  
CORSICANA      FAIR      70  61  73 E5        29.88F                  
MEXIA          FAIR      69  64  82 CALM      29.88R                  
HEARNE         FAIR      73  66  78 CALM      29.85F                  
TEMPLE         CLOUDY    74  66  76 S9        29.88S                  
KILLEEN        CLOUDY    73  65  75 SE9       29.87R                  
KILLEEN-SKYLRK CLOUDY    74  66  76 S7        29.89R                  
FORT HOOD      CLOUDY    74  65  74 S7        29.89R                  
GATESVILLE     MOCLDY    75  64  69 SE6       29.89S                  
HAMILTON       MOCLDY    69  50  51 N9        29.92R                  
LAMPASAS       FAIR      74  64  70 SW5       29.89R                  
$$


SKY/WX - Weather  TMP - Temperature  DP - Dew Point  RH - Relative Humidity
WIND - Wind Direction/Speed PRES - Barometric Pressure VSB - Visibility
WCI - Wind Chill Index E13G22 Wind - East Wind 13 mph/Gusts of 22 mph